Time,TemperatureF,DewpointF,PressureIn,WindDirection,WindDirectionDegrees,WindSpeedMPH,WindSpeedGustMPH,Humidity,HourlyPrecipIn,Conditions,Clouds,dailyrainin,SoftwareType,DateUTC
2013-09-27 00:01:00,52.8,51.1,30.10,North,350,0.0,0.0,94,0.00,FEW,,0.00,WeatherDisplay:10.37,2013-09-27 04:01:00,
2013-09-27 00:02:00,52.8,51.1,30.10,North,350,0.0,0.0,94,0.00,FEW,,0.00,WeatherDisplay:10.37,2013-09-27 04:02:00,
2013-09-27 00:03:00,52.8,51.1,30.10,North,350,0.0,0.0,94,0.00,FEW,,0.00,WeatherDisplay:10.37,2013-09-27 04:03:00,
2013-09-27 00:08:00,52.7,51.0,30.10,North,350,0.0,0.0,94,0.00,FEW,,0.00,WeatherDisplay:10.37,2013-09-27 04:08:00,
2013-09-27 00:13:00,52.7,51.0,30.10,North,350,0.0,0.0,94,0.00,FEW,,0.00,WeatherDisplay:10.37,2013-09-27 04:13:00,
2013-09-27 00:18:00,52.6,51.2,30.10,North,350,1.1,0.0,95,0.00,FEW,,0.00,WeatherDisplay:10.37,2013-09-27 04:18:00,
2013-09-27 00:23:00,52.6,51.2,30.10,North,350,2.3,2.3,95,0.00,FEW,,0.00,WeatherDisplay:10.37,2013-09-27 04:23:00,
2013-09-27 00:28:00,52.4,50.7,30.10,North,350,2.3,2.3,94,0.00,FEW,,0.00,WeatherDisplay:10.37,2013-09-27 04:28:00,
2013-09-27 00:33:00,52.3,50.6,30.10,North,350,0.0,0.0,94,0.00,FEW,,0.00,WeatherDisplay:10.37,2013-09-27 04:33:00,
2013-09-27 00:38:00,52.2,50.5,30.10,North,350,2.3,2.3,94,0.00,FEW,,0.00,WeatherDisplay:10.37,2013-09-27 04:38:00,
2013-09-27 00:43:00,52.0,50.3,30.10,North,350,2.3,2.3,94,0.00,FEW,,0.00,WeatherDisplay:10.37,2013-09-27 04:43:00,
2013-09-27 00:48:00,51.7,50.0,30.10,North,350,2.3,2.3,94,0.00,FEW,,0.00,WeatherDisplay:10.37,2013-09-27 04:48:00,
2013-09-27 00:53:00,51.6,49.9,30.10,North,350,1.1,1.1,94,0.00,FEW,,0.00,WeatherDisplay:10.37,2013-09-27 04:53:00,
2013-09-27 00:58:00,51.6,49.9,30.10,North,350,0.0,0.0,94,0.00,FEW,,0.00,WeatherDisplay:10.37,2013-09-27 04:58:00,
2013-09-27 01:03:00,51.7,50.3,30.10,North,350,0.0,0.0,95,0.00,CLR,,0.00,WeatherDisplay:10.37,2013-09-27 05:03:00,
2013-09-27 01:08:00,51.9,50.5,30.10,North,350,3.5,3.5,95,0.00,CLR,,0.00,WeatherDisplay:10.37,2013-09-27 05:08:00,
2013-09-27 01:13:00,52.1,50.7,30.10,North,350,0.0,0.0,95,0.00,CLR,,0.00,WeatherDisplay:10.37,2013-09-27 05:13:00,
2013-09-27 01:18:00,52.1,50.7,30.10,North,350,0.0,0.0,95,0.00,CLR,,0.00,WeatherDisplay:10.37,2013-09-27 05:18:00,
2013-09-27 01:23:00,52.3,50.9,30.10,North,360,4.6,4.6,95,0.00,CLR,,0.00,WeatherDisplay:10.37,2013-09-27 05:23:00,
2013-09-27 01:28:00,52.6,51.2,30.10,NNW,338,4.0,4.0,95,0.00,CLR,,0.00,WeatherDisplay:10.37,2013-09-27 05:28:00,
2013-09-27 01:33:00,52.6,51.2,30.10,NW,319,3.5,3.5,95,0.00,CLR,,0.00,WeatherDisplay:10.37,2013-09-27 05:33:00,
2013-09-27 01:38:00,52.5,51.1,30.11,NW,319,3.5,3.5,95,0.00,CLR,,0.00,WeatherDisplay:10.37,2013-09-27 05:38:00,
2013-09-27 01:43:00,52.4,51.0,30.11,NW,319,4.6,4.6,95,0.00,CLR,,0.00,WeatherDisplay:10.37,2013-09-27 05:43:00,
2013-09-27 01:48:00,52.3,50.9,30.11,NW,319,3.5,3.5,95,0.00,CLR,,0.00,WeatherDisplay:10.37,2013-09-27 05:48:00,
2013-09-27 01:53:00,52.1,50.7,30.11,NW,315,2.3,2.3,95,0.00,CLR,,0.00,WeatherDisplay:10.37,2013-09-27 05:53:00,
2013-09-27 01:58:00,52.1,50.7,30.11,NW,315,3.5,3.5,95,0.00,CLR,,0.00,WeatherDisplay:10.37,2013-09-27 05:58:00,
2013-09-27 02:03:00,52.2,50.8,30.11,NW,315,3.5,3.5,95,0.00,CLR,,0.00,WeatherDisplay:10.37,2013-09-27 06:03:00,
2013-09-27 02:08:00,52.6,51.2,30.12,NNE,17,11.5,11.5,95,0.00,CLR,,0.00,WeatherDisplay:10.37,2013-09-27 06:08:00,
2013-09-27 02:13:00,52.7,51.3,30.12,North,9,3.5,3.5,95,0.00,CLR,,0.00,WeatherDisplay:10.37,2013-09-27 06:13:00,
2013-09-27 02:18:00,52.8,51.4,30.12,NNE,22,3.5,3.5,95,0.00,CLR,,0.00,WeatherDisplay:10.37,2013-09-27 06:18:00,
2013-09-27 02:23:00,52.9,51.5,30.12,NNE,18,3.5,3.5,95,0.00,CLR,,0.00,WeatherDisplay:10.37,2013-09-27 06:23:00,
2013-09-27 02:28:00,53.0,51.6,30.12,NNE,18,3.5,3.5,95,0.00,CLR,,0.00,WeatherDisplay:10.37,2013-09-27 06:28:00,
2013-09-27 02:33:00,53.2,51.8,30.12,NW,306,2.3,2.3,95,0.00,CLR,,0.00,WeatherDisplay:10.37,2013-09-27 06:33:00,
2013-09-27 02:38:00,53.2,51.8,30.11,NW,306,3.0,3.0,95,0.00,CLR,,0.00,WeatherDisplay:10.37,2013-09-27 06:38:00,
2013-09-27 02:43:00,53.3,51.9,30.11,NW,306,3.5,3.5,95,0.00,CLR,,0.00,WeatherDisplay:10.37,2013-09-27 06:43:00,
2013-09-27 02:48:00,53.4,52.0,30.11,NW,306,3.5,3.5,95,0.00,CLR,,0.00,WeatherDisplay:10.37,2013-09-27 06:48:00,
2013-09-27 02:53:00,53.4,52.0,30.11,NW,306,3.5,3.5,95,0.00,CLR,,0.00,WeatherDisplay:10.37,2013-09-27 06:53:00,
2013-09-27 02:58:00,53.4,51.7,30.11,NW,306,3.5,3.5,94,0.00,CLR,,0.00,WeatherDisplay:10.37,2013-09-27 06:58:00,
2013-09-27 03:03:00,53.3,51.6,30.11,NW,306,3.5,3.5,94,0.00,CLR,,0.00,WeatherDisplay:10.37,2013-09-27 07:03:00,
2013-09-27 03:08:00,53.3,51.6,30.11,NW,306,3.5,3.5,94,0.00,CLR,,0.00,WeatherDisplay:10.37,2013-09-27 07:08:00,
2013-09-27 03:13:00,53.3,51.6,30.11,NW,306,2.0,2.0,94,0.00,CLR,,0.00,WeatherDisplay:10.37,2013-09-27 07:13:00,
2013-09-27 03:18:00,53.4,51.7,30.11,NW,306,0.0,0.0,94,0.00,CLR,,0.00,WeatherDisplay:10.37,2013-09-27 07:18:00,
2013-09-27 03:23:00,53.5,51.8,30.11,NW,306,2.3,2.3,94,0.00,CLR,,0.00,WeatherDisplay:10.37,2013-09-27 07:23:00,
2013-09-27 03:28:00,53.5,51.8,30.11,NW,306,2.3,2.3,94,0.00,CLR,,0.00,WeatherDisplay:10.37,2013-09-27 07:28:00,
2013-09-27 03:33:00,53.5,51.8,30.11,NW,306,0.0,0.0,94,0.00,CLR,,0.00,WeatherDisplay:10.37,2013-09-27 07:33:00,
2013-09-27 03:38:00,53.6,51.9,30.12,NW,306,1.0,1.0,94,0.00,CLR,,0.00,WeatherDisplay:10.37,2013-09-27 07:38:00,
2013-09-27 03:43:00,53.6,51.9,30.12,NW,306,0.0,0.0,94,0.00,CLR,,0.00,WeatherDisplay:10.37,2013-09-27 07:43:00,
2013-09-27 03:48:00,53.7,52.0,30.12,NW,306,2.3,2.3,94,0.00,CLR,,0.00,WeatherDisplay:10.37,2013-09-27 07:48:00,
2013-09-27 03:49:00,53.7,52.0,30.12,NW,306,0.0,0.0,94,0.00,CLR,,0.00,WeatherDisplay:10.37,2013-09-27 07:49:00,
2013-09-27 03:54:00,53.8,52.1,30.12,NW,306,2.3,2.3,94,0.00,CLR,,0.00,WeatherDisplay:10.37,2013-09-27 07:54:00,
2013-09-27 03:59:00,53.9,52.2,30.12,NW,306,2.3,2.3,94,0.00,CLR,,0.00,WeatherDisplay:10.37,2013-09-27 07:59:00,
2013-09-27 04:04:00,53.9,52.2,30.12,NW,306,2.3,2.3,94,0.00,CLR,,0.00,WeatherDisplay:10.37,2013-09-27 08:04:00,
2013-09-27 04:09:00,53.9,52.2,30.12,NW,306,2.3,2.3,94,0.00,CLR,,0.00,WeatherDisplay:10.37,2013-09-27 08:09:00,
2013-09-27 04:14:00,53.7,52.0,30.12,NW,306,3.5,3.5,94,0.00,CLR,,0.00,WeatherDisplay:10.37,2013-09-27 08:14:00,
2013-09-27 04:19:00,53.7,52.0,30.12,NW,306,2.3,2.3,94,0.00,CLR,,0.00,WeatherDisplay:10.37,2013-09-27 08:19:00,
2013-09-27 04:24:00,53.7,52.0,30.12,NW,306,2.3,2.3,94,0.00,CLR,,0.00,WeatherDisplay:10.37,2013-09-27 08:24:00,
2013-09-27 04:29:00,53.7,52.0,30.12,NW,306,0.0,0.0,94,0.00,CLR,,0.00,WeatherDisplay:10.37,2013-09-27 08:29:00,
2013-09-27 04:34:00,53.7,52.0,30.12,NW,306,3.5,3.5,94,0.00,CLR,,0.00,WeatherDisplay:10.37,2013-09-27 08:34:00,
2013-09-27 04:39:00,53.8,52.1,30.12,NW,306,2.3,2.3,94,0.00,CLR,,0.00,WeatherDisplay:10.37,2013-09-27 08:39:00,
2013-09-27 04:44:00,53.9,52.2,30.13,NW,325,2.3,2.3,94,0.00,CLR,,0.00,WeatherDisplay:10.37,2013-09-27 08:44:00,
2013-09-27 04:49:00,54.1,52.4,30.13,NW,325,3.5,3.5,94,0.00,CLR,,0.00,WeatherDisplay:10.37,2013-09-27 08:49:00,
2013-09-27 04:54:00,54.0,52.3,30.13,NW,325,2.3,2.3,94,0.00,CLR,,0.00,WeatherDisplay:10.37,2013-09-27 08:54:00,
2013-09-27 04:59:00,53.9,52.2,30.13,NW,325,3.5,3.5,94,0.00,CLR,,0.00,WeatherDisplay:10.37,2013-09-27 08:59:00,
2013-09-27 05:04:00,53.9,52.2,30.14,North,355,8.1,8.1,94,0.00,BKN,,0.00,WeatherDisplay:10.37,2013-09-27 09:04:00,
2013-09-27 05:09:00,54.2,52.5,30.14,NNW,340,4.0,4.0,94,0.00,BKN,,0.00,WeatherDisplay:10.37,2013-09-27 09:09:00,
2013-09-27 05:14:00,54.3,52.6,30.14,NNW,336,3.5,3.5,94,0.00,BKN,,0.00,WeatherDisplay:10.37,2013-09-27 09:14:00,
2013-09-27 05:19:00,54.3,52.6,30.14,NNW,336,2.3,2.3,94,0.00,BKN,,0.00,WeatherDisplay:10.37,2013-09-27 09:19:00,
2013-09-27 05:24:00,54.4,52.7,30.14,NNW,335,2.3,2.3,94,0.00,BKN,,0.00,WeatherDisplay:10.37,2013-09-27 09:24:00,
2013-09-27 05:29:00,54.3,52.6,30.14,NNW,333,3.0,3.0,94,0.00,BKN,,0.00,WeatherDisplay:10.37,2013-09-27 09:29:00,
2013-09-27 05:34:00,54.4,52.7,30.14,NNW,331,2.3,2.3,94,0.00,BKN,,0.00,WeatherDisplay:10.37,2013-09-27 09:34:00,
2013-09-27 05:39:00,54.3,52.3,30.14,NNW,332,3.5,3.5,93,0.00,BKN,,0.00,WeatherDisplay:10.37,2013-09-27 09:39:00,
2013-09-27 05:44:00,54.3,52.3,30.15,NNW,332,3.5,3.5,93,0.00,BKN,,0.00,WeatherDisplay:10.37,2013-09-27 09:44:00,
2013-09-27 05:49:00,54.4,52.4,30.15,NW,323,3.5,3.5,93,0.00,BKN,,0.00,WeatherDisplay:10.37,2013-09-27 09:49:00,
2013-09-27 05:54:00,54.4,52.4,30.15,NW,314,3.5,3.5,93,0.00,BKN,,0.00,WeatherDisplay:10.37,2013-09-27 09:54:00,
2013-09-27 05:59:00,54.5,52.5,30.15,NW,314,3.5,3.5,93,0.00,BKN,,0.00,WeatherDisplay:10.37,2013-09-27 09:59:00,
2013-09-27 06:04:00,54.6,52.6,30.15,NW,314,3.5,3.5,93,0.00,CLR,,0.00,WeatherDisplay:10.37,2013-09-27 10:04:00,
2013-09-27 06:09:00,54.7,52.4,30.15,NW,314,3.5,3.5,92,0.00,CLR,,0.00,WeatherDisplay:10.37,2013-09-27 10:09:00,
2013-09-27 06:14:00,54.8,52.5,30.15,NW,314,2.3,2.3,92,0.00,CLR,,0.00,WeatherDisplay:10.37,2013-09-27 10:14:00,
2013-09-27 06:19:00,54.9,52.6,30.15,NW,314,2.3,2.3,92,0.00,CLR,,0.00,WeatherDisplay:10.37,2013-09-27 10:19:00,
2013-09-27 06:24:00,55.0,52.7,30.16,NW,314,3.5,3.5,92,0.00,CLR,,0.00,WeatherDisplay:10.37,2013-09-27 10:24:00,
2013-09-27 06:29:00,55.0,52.7,30.16,NW,314,3.5,3.5,92,0.00,CLR,,0.00,WeatherDisplay:10.37,2013-09-27 10:29:00,
2013-09-27 06:34:00,55.1,52.8,30.16,NW,314,3.5,3.5,92,0.00,CLR,,0.00,WeatherDisplay:10.37,2013-09-27 10:34:00,
2013-09-27 06:39:00,55.1,52.5,30.16,NW,315,3.5,3.5,91,0.00,CLR,,0.00,WeatherDisplay:10.37,2013-09-27 10:39:00,
2013-09-27 06:44:00,55.1,52.5,30.16,NW,315,3.5,3.5,91,0.00,CLR,,0.00,WeatherDisplay:10.37,2013-09-27 10:44:00,
2013-09-27 06:49:00,55.1,52.5,30.16,NW,324,4.6,4.6,91,0.00,CLR,,0.00,WeatherDisplay:10.37,2013-09-27 10:49:00,
2013-09-27 06:54:00,55.1,52.5,30.16,NW,315,2.3,2.3,91,0.00,CLR,,0.00,WeatherDisplay:10.37,2013-09-27 10:54:00,
2013-09-27 06:59:00,55.2,52.6,30.16,NW,312,3.5,3.5,91,0.00,CLR,,0.00,WeatherDisplay:10.37,2013-09-27 10:59:00,
2013-09-27 07:04:00,55.2,52.6,30.17,NW,311,3.5,3.5,91,0.00,SCT,,0.00,WeatherDisplay:10.37,2013-09-27 11:04:00,
2013-09-27 07:09:00,55.3,52.7,30.17,NW,311,2.3,2.3,91,0.00,SCT,,0.00,WeatherDisplay:10.37,2013-09-27 11:09:00,
2013-09-27 07:14:00,55.3,52.7,30.17,NW,311,3.5,3.5,91,0.00,SCT,,0.00,WeatherDisplay:10.37,2013-09-27 11:14:00,
2013-09-27 07:19:00,55.4,52.8,30.17,NW,311,4.6,4.6,91,0.00,SCT,,0.00,WeatherDisplay:10.37,2013-09-27 11:19:00,
2013-09-27 07:24:00,55.4,52.8,30.17,NW,311,3.5,3.5,91,0.00,SCT,,0.00,WeatherDisplay:10.37,2013-09-27 11:24:00,
2013-09-27 07:29:00,55.5,52.9,30.17,NW,311,4.6,4.6,91,0.00,SCT,,0.00,WeatherDisplay:10.37,2013-09-27 11:29:00,
2013-09-27 07:34:00,55.5,52.9,30.17,NW,311,4.0,4.0,91,0.00,SCT,,0.00,WeatherDisplay:10.37,2013-09-27 11:34:00,
2013-09-27 07:39:00,55.5,52.9,30.17,NW,312,5.0,5.0,91,0.00,SCT,,0.00,WeatherDisplay:10.37,2013-09-27 11:39:00,
2013-09-27 07:44:00,55.6,53.0,30.17,NW,323,3.5,3.5,91,0.00,SCT,,0.00,WeatherDisplay:10.37,2013-09-27 11:44:00,
2013-09-27 07:49:00,55.6,53.0,30.18,NW,320,3.5,3.5,91,0.00,SCT,,0.00,WeatherDisplay:10.37,2013-09-27 11:49:00,
2013-09-27 07:54:00,55.7,52.8,30.18,NW,326,5.0,5.0,90,0.00,SCT,,0.00,WeatherDisplay:10.37,2013-09-27 11:54:00,
2013-09-27 07:59:00,55.7,52.8,30.18,NW,317,5.0,5.0,90,0.00,SCT,,0.00,WeatherDisplay:10.37,2013-09-27 11:59:00,
2013-09-27 08:04:00,55.7,52.8,30.18,NNW,336,4.6,4.6,90,0.00,SCT,,0.00,WeatherDisplay:10.37,2013-09-27 12:04:00,
2013-09-27 08:09:00,55.9,53.3,30.18,NW,309,6.9,6.9,91,0.00,SCT,,0.00,WeatherDisplay:10.37,2013-09-27 12:09:00,
2013-09-27 08:14:00,56.0,53.4,30.18,NW,317,4.6,4.6,91,0.00,SCT,,0.00,WeatherDisplay:10.37,2013-09-27 12:14:00,
2013-09-27 08:19:00,56.0,53.4,30.19,NW,326,6.0,6.0,91,0.00,SCT,,0.00,WeatherDisplay:10.37,2013-09-27 12:19:00,
2013-09-27 08:24:00,56.0,53.4,30.19,NW,325,8.1,8.1,91,0.00,SCT,,0.00,WeatherDisplay:10.37,2013-09-27 12:24:00,
2013-09-27 08:29:00,56.1,53.5,30.19,NW,321,6.9,6.9,91,0.00,SCT,,0.00,WeatherDisplay:10.37,2013-09-27 12:29:00,
2013-09-27 08:34:00,56.1,53.2,30.19,NNW,332,8.1,8.1,90,0.00,SCT,,0.00,WeatherDisplay:10.37,2013-09-27 12:34:00,
2013-09-27 08:39:00,56.2,53.3,30.19,NNW,336,6.9,6.9,90,0.00,SCT,,0.00,WeatherDisplay:10.37,2013-09-27 12:39:00,
2013-09-27 08:44:00,56.3,53.4,30.20,NNW,342,8.1,8.1,90,0.00,SCT,,0.00,WeatherDisplay:10.37,2013-09-27 12:44:00,
2013-09-27 08:49:00,56.5,53.6,30.20,NW,323,3.5,3.5,90,0.00,SCT,,0.00,WeatherDisplay:10.37,2013-09-27 12:49:00,
2013-09-27 08:54:00,56.6,53.4,30.20,NNW,341,4.0,4.0,89,0.00,SCT,,0.00,WeatherDisplay:10.37,2013-09-27 12:54:00,
2013-09-27 08:59:00,56.6,53.4,30.20,NW,307,5.0,5.0,89,0.00,SCT,,0.00,WeatherDisplay:10.37,2013-09-27 12:59:00,
2013-09-27 09:04:00,56.7,53.5,30.21,NNW,328,5.8,5.8,89,0.00,BKN,,0.00,WeatherDisplay:10.37,2013-09-27 13:04:00,
2013-09-27 09:09:00,56.8,53.6,30.20,NW,312,4.6,4.6,89,0.00,BKN,,0.00,WeatherDisplay:10.37,2013-09-27 13:09:00,
2013-09-27 09:14:00,57.0,53.5,30.21,WNW,291,3.5,3.5,88,0.00,BKN,,0.00,WeatherDisplay:10.37,2013-09-27 13:14:00,
2013-09-27 09:19:00,57.2,53.7,30.21,NW,322,5.8,5.8,88,0.00,BKN,,0.00,WeatherDisplay:10.37,2013-09-27 13:19:00,
2013-09-27 09:24:00,57.3,53.8,30.21,NW,320,4.6,4.6,88,0.00,BKN,,0.00,WeatherDisplay:10.37,2013-09-27 13:24:00,
2013-09-27 09:29:00,57.5,53.7,30.21,NNW,345,5.0,5.0,87,0.00,BKN,,0.00,WeatherDisplay:10.37,2013-09-27 13:29:00,
2013-09-27 09:34:00,57.7,53.9,30.21,NNW,338,4.6,4.6,87,0.00,BKN,,0.00,WeatherDisplay:10.37,2013-09-27 13:34:00,
2013-09-27 09:39:00,57.9,54.1,30.21,NNW,329,8.1,8.1,87,0.00,BKN,,0.00,WeatherDisplay:10.37,2013-09-27 13:39:00,
2013-09-27 09:44:00,58.2,54.0,30.21,NNW,331,5.8,5.8,86,0.00,BKN,,0.00,WeatherDisplay:10.37,2013-09-27 13:44:00,
2013-09-27 09:49:00,58.4,54.2,30.21,NNW,348,4.0,4.0,86,0.00,BKN,,0.00,WeatherDisplay:10.37,2013-09-27 13:49:00,
2013-09-27 09:54:00,58.5,54.0,30.22,North,360,4.6,4.6,85,0.00,BKN,,0.00,WeatherDisplay:10.37,2013-09-27 13:54:00,
2013-09-27 09:59:00,58.6,54.1,30.22,NNW,348,6.0,6.0,85,0.00,BKN,,0.00,WeatherDisplay:10.37,2013-09-27 13:59:00,
2013-09-27 10:04:00,58.9,54.4,30.22,North,360,6.9,6.9,85,0.00,BKN,,0.00,WeatherDisplay:10.37,2013-09-27 14:04:00,
2013-09-27 10:09:00,59.0,54.2,30.22,NW,324,5.0,5.4,84,0.00,BKN,,0.00,WeatherDisplay:10.37,2013-09-27 14:09:00,
2013-09-27 10:14:00,59.1,54.3,30.21,NNW,346,4.0,4.0,84,0.00,BKN,,0.00,WeatherDisplay:10.37,2013-09-27 14:14:00,
2013-09-27 10:19:00,59.2,54.4,30.21,NNW,344,4.0,4.0,84,0.00,BKN,,0.00,WeatherDisplay:10.37,2013-09-27 14:19:00,
2013-09-27 10:24:00,59.2,54.4,30.21,NW,324,4.6,4.6,84,0.00,BKN,,0.00,WeatherDisplay:10.37,2013-09-27 14:24:00,
2013-09-27 10:29:00,59.4,54.6,30.21,NW,313,5.8,5.8,84,0.00,BKN,,0.00,WeatherDisplay:10.37,2013-09-27 14:29:00,
2013-09-27 10:34:00,59.4,54.2,30.21,NW,325,5.8,5.8,83,0.00,BKN,,0.00,WeatherDisplay:10.37,2013-09-27 14:34:00,
2013-09-27 10:39:00,59.6,54.4,30.21,NW,326,4.6,4.6,83,0.00,BKN,,0.00,WeatherDisplay:10.37,2013-09-27 14:39:00,
2013-09-27 10:44:00,59.7,54.9,30.21,NNW,327,3.5,3.5,84,0.00,BKN,,0.00,WeatherDisplay:10.37,2013-09-27 14:44:00,
2013-09-27 10:49:00,59.9,55.1,30.21,NNW,337,5.8,5.8,84,0.00,BKN,,0.00,WeatherDisplay:10.37,2013-09-27 14:49:00,
2013-09-27 10:54:00,59.9,54.7,30.21,NW,317,4.6,4.6,83,0.00,BKN,,0.00,WeatherDisplay:10.37,2013-09-27 14:54:00,
2013-09-27 10:59:00,60.0,54.8,30.21,NW,319,4.6,5.1,83,0.00,BKN,,0.00,WeatherDisplay:10.37,2013-09-27 14:59:00,
2013-09-27 11:04:00,60.0,54.5,30.21,NW,314,5.8,5.8,82,0.00,OVC,,0.00,WeatherDisplay:10.37,2013-09-27 15:04:00,
2013-09-27 11:09:00,60.2,54.7,30.21,NNW,340,5.0,5.0,82,0.00,OVC,,0.00,WeatherDisplay:10.37,2013-09-27 15:09:00,
2013-09-27 11:14:00,60.3,54.8,30.21,NW,306,4.6,4.6,82,0.00,OVC,,0.00,WeatherDisplay:10.37,2013-09-27 15:14:00,
2013-09-27 11:19:00,60.5,54.6,30.21,NW,325,5.8,5.8,81,0.00,OVC,,0.00,WeatherDisplay:10.37,2013-09-27 15:19:00,
2013-09-27 11:24:00,60.6,54.7,30.21,NW,325,7.0,7.0,81,0.00,OVC,,0.00,WeatherDisplay:10.37,2013-09-27 15:24:00,
2013-09-27 11:29:00,60.7,54.8,30.21,NW,312,6.9,6.9,81,0.00,OVC,,0.00,WeatherDisplay:10.37,2013-09-27 15:29:00,
2013-09-27 11:34:00,60.8,54.6,30.21,NNW,327,8.1,8.1,80,0.00,OVC,,0.00,WeatherDisplay:10.37,2013-09-27 15:34:00,
2013-09-27 11:39:00,60.9,55.0,30.21,WNW,303,5.0,5.4,81,0.00,OVC,,0.00,WeatherDisplay:10.37,2013-09-27 15:39:00,
2013-09-27 11:44:00,61.0,54.8,30.21,NNW,327,7.0,7.0,80,0.00,OVC,,0.00,WeatherDisplay:10.37,2013-09-27 15:44:00,
2013-09-27 11:49:00,61.2,55.0,30.21,NW,311,8.1,8.1,80,0.00,OVC,,0.00,WeatherDisplay:10.37,2013-09-27 15:49:00,
2013-09-27 11:54:00,61.3,54.7,30.21,NW,317,6.0,6.0,79,0.00,OVC,,0.00,WeatherDisplay:10.37,2013-09-27 15:54:00,
2013-09-27 11:59:00,61.4,54.1,30.21,NNW,337,9.2,9.2,77,0.00,OVC,,0.00,WeatherDisplay:10.37,2013-09-27 15:59:00,
2013-09-27 12:04:00,61.6,54.3,30.21,NW,324,9.2,9.2,77,0.00,OVC,,0.00,WeatherDisplay:10.37,2013-09-27 16:04:00,
2013-09-27 12:09:00,61.7,53.7,30.21,NW,308,9.2,9.2,75,0.00,OVC,,0.00,WeatherDisplay:10.37,2013-09-27 16:09:00,
2013-09-27 12:14:00,61.9,54.2,30.21,NW,313,6.9,6.9,76,0.00,OVC,,0.00,WeatherDisplay:10.37,2013-09-27 16:14:00,
2013-09-27 12:19:00,62.1,54.4,30.21,NW,325,8.1,8.1,76,0.00,OVC,,0.00,WeatherDisplay:10.37,2013-09-27 16:19:00,
2013-09-27 12:24:00,62.2,54.5,30.21,North,355,6.9,6.9,76,0.00,OVC,,0.00,WeatherDisplay:10.37,2013-09-27 16:24:00,
2013-09-27 12:29:00,62.3,54.3,30.21,North,355,9.2,9.2,75,0.00,OVC,,0.00,WeatherDisplay:10.37,2013-09-27 16:29:00,
2013-09-27 12:34:00,62.3,53.9,30.21,NNW,342,8.1,8.1,74,0.00,OVC,,0.00,WeatherDisplay:10.37,2013-09-27 16:34:00,
2013-09-27 12:39:00,62.5,54.1,30.21,North,11,4.6,4.6,74,0.00,OVC,,0.00,WeatherDisplay:10.37,2013-09-27 16:39:00,
2013-09-27 12:44:00,62.6,53.8,30.21,NNW,340,6.9,6.9,73,0.00,OVC,,0.00,WeatherDisplay:10.37,2013-09-27 16:44:00,
2013-09-27 12:49:00,62.7,54.3,30.20,NNW,335,6.9,6.9,74,0.00,OVC,,0.00,WeatherDisplay:10.37,2013-09-27 16:49:00,
2013-09-27 12:54:00,63.0,54.2,30.20,NW,309,6.9,6.9,73,0.00,OVC,,0.00,WeatherDisplay:10.37,2013-09-27 16:54:00,
2013-09-27 12:59:00,63.2,54.0,30.20,NW,324,8.1,8.1,72,0.00,OVC,,0.00,WeatherDisplay:10.37,2013-09-27 16:59:00,
2013-09-27 13:04:00,63.3,54.5,30.20,NNW,347,8.1,8.1,73,0.00,BKN,,0.00,WeatherDisplay:10.37,2013-09-27 17:04:00,
2013-09-27 13:09:00,63.4,54.2,30.20,NW,315,10.4,10.4,72,0.00,BKN,,0.00,WeatherDisplay:10.37,2013-09-27 17:09:00,
2013-09-27 13:14:00,63.4,53.8,30.20,NNW,329,6.9,6.9,71,0.00,BKN,,0.00,WeatherDisplay:10.37,2013-09-27 17:14:00,
2013-09-27 13:19:00,63.3,53.7,30.20,NNW,336,9.2,9.2,71,0.00,BKN,,0.00,WeatherDisplay:10.37,2013-09-27 17:19:00,
2013-09-27 13:24:00,63.4,54.2,30.20,NW,322,5.8,5.8,72,0.00,BKN,,0.00,WeatherDisplay:10.37,2013-09-27 17:24:00,
2013-09-27 13:27:00,63.3,53.7,30.19,NW,315,9.2,9.2,71,0.00,BKN,,0.00,WeatherDisplay:10.37,2013-09-27 17:27:00,
2013-09-27 13:32:00,63.3,53.3,30.19,NNW,348,6.9,6.9,70,0.00,BKN,,0.00,WeatherDisplay:10.37,2013-09-27 17:32:00,
2013-09-27 13:37:00,63.4,54.2,30.19,NW,320,6.9,6.9,72,0.00,BKN,,0.00,WeatherDisplay:10.37,2013-09-27 17:37:00,
2013-09-27 13:42:00,63.6,54.4,30.19,NNW,344,6.9,6.9,72,0.00,BKN,,0.00,WeatherDisplay:10.37,2013-09-27 17:42:00,
2013-09-27 13:47:00,63.7,54.1,30.19,NNW,329,11.5,11.5,71,0.00,BKN,,0.00,WeatherDisplay:10.37,2013-09-27 17:47:00,
2013-09-27 13:52:00,63.7,54.1,30.19,NNW,344,10.0,10.0,71,0.00,BKN,,0.00,WeatherDisplay:10.37,2013-09-27 17:52:00,
2013-09-27 13:57:00,63.6,54.0,30.19,North,350,8.1,8.1,71,0.00,BKN,,0.00,WeatherDisplay:10.37,2013-09-27 17:57:00,
2013-09-27 14:02:00,63.7,54.1,30.19,NNW,336,9.0,9.0,71,0.00,OVC,,0.00,WeatherDisplay:10.37,2013-09-27 18:02:00,
2013-09-27 14:07:00,63.7,53.7,30.19,North,9,8.1,8.1,70,0.00,OVC,,0.00,WeatherDisplay:10.37,2013-09-27 18:07:00,
2013-09-27 14:12:00,63.8,54.2,30.19,North,355,8.1,8.1,71,0.00,OVC,,0.00,WeatherDisplay:10.37,2013-09-27 18:12:00,
2013-09-27 14:17:00,63.8,54.2,30.18,NNW,340,8.1,8.1,71,0.00,OVC,,0.00,WeatherDisplay:10.37,2013-09-27 18:17:00,
2013-09-27 14:22:00,63.6,53.6,30.18,NW,320,9.2,9.2,70,0.00,OVC,,0.00,WeatherDisplay:10.37,2013-09-27 18:22:00,
2013-09-27 14:27:00,63.6,53.6,30.18,NW,309,8.1,8.1,70,0.00,OVC,,0.00,WeatherDisplay:10.37,2013-09-27 18:27:00,
2013-09-27 14:32:00,63.8,54.2,30.18,NW,326,9.2,9.2,71,0.00,OVC,,0.00,WeatherDisplay:10.37,2013-09-27 18:32:00,
2013-09-27 14:37:00,63.8,53.4,30.18,NNW,346,8.1,8.1,69,0.00,OVC,,0.00,WeatherDisplay:10.37,2013-09-27 18:37:00,
2013-09-27 14:42:00,63.9,54.3,30.18,NW,323,9.2,9.2,71,0.00,OVC,,0.00,WeatherDisplay:10.37,2013-09-27 18:42:00,
2013-09-27 14:47:00,64.1,54.5,30.18,NNW,329,8.1,8.1,71,0.00,OVC,,0.00,WeatherDisplay:10.37,2013-09-27 18:47:00,
2013-09-27 14:52:00,64.3,54.3,30.18,NNW,342,8.0,8.0,70,0.00,OVC,,0.00,WeatherDisplay:10.37,2013-09-27 18:52:00,
2013-09-27 14:57:00,64.4,54.4,30.18,North,355,9.2,9.2,70,0.00,OVC,,0.00,WeatherDisplay:10.37,2013-09-27 18:57:00,
2013-09-27 15:02:00,64.4,54.4,30.18,NNW,343,10.4,10.4,70,0.00,OVC,,0.00,WeatherDisplay:10.37,2013-09-27 19:02:00,
2013-09-27 15:07:00,64.3,53.9,30.18,NNW,346,11.5,11.5,69,0.00,OVC,,0.00,WeatherDisplay:10.37,2013-09-27 19:07:00,
2013-09-27 15:12:00,64.2,53.8,30.17,NNW,336,6.0,6.0,69,0.00,OVC,,0.00,WeatherDisplay:10.37,2013-09-27 19:12:00,
2013-09-27 15:17:00,64.3,54.7,30.17,NNW,344,8.1,8.1,71,0.00,OVC,,0.00,WeatherDisplay:10.37,2013-09-27 19:17:00,
2013-09-27 15:22:00,64.3,55.1,30.18,WNW,291,6.9,6.9,72,0.00,OVC,,0.00,WeatherDisplay:10.37,2013-09-27 19:22:00,
2013-09-27 15:27:00,64.1,54.5,30.17,WNW,295,6.9,6.9,71,0.00,OVC,,0.00,WeatherDisplay:10.37,2013-09-27 19:27:00,
2013-09-27 15:32:00,64.1,54.9,30.17,WNW,303,6.0,6.0,72,0.00,OVC,,0.00,WeatherDisplay:10.37,2013-09-27 19:32:00,
2013-09-27 15:37:00,64.1,54.9,30.17,WNW,296,5.8,6.0,72,0.00,OVC,,0.00,WeatherDisplay:10.37,2013-09-27 19:37:00,
2013-09-27 15:42:00,64.2,55.4,30.17,NW,317,8.0,8.0,73,0.00,OVC,,0.00,WeatherDisplay:10.37,2013-09-27 19:42:00,
2013-09-27 15:47:00,64.2,55.0,30.17,NNW,348,5.8,5.8,72,0.00,OVC,,0.00,WeatherDisplay:10.37,2013-09-27 19:47:00,
2013-09-27 15:52:00,64.3,55.1,30.17,NW,310,5.8,5.8,72,0.00,OVC,,0.00,WeatherDisplay:10.37,2013-09-27 19:52:00,
2013-09-27 15:57:00,64.8,55.6,30.17,NW,312,8.1,8.1,72,0.00,OVC,,0.00,WeatherDisplay:10.37,2013-09-27 19:57:00,
2013-09-27 16:02:00,64.8,55.2,30.17,NNW,337,7.0,7.0,71,0.00,OVC,,0.00,WeatherDisplay:10.37,2013-09-27 20:02:00,
2013-09-27 16:07:00,65.0,55.4,30.17,NW,306,10.4,10.4,71,0.00,OVC,,0.00,WeatherDisplay:10.37,2013-09-27 20:07:00,
2013-09-27 16:12:00,64.8,55.2,30.17,WNW,296,6.9,6.9,71,0.00,OVC,,0.00,WeatherDisplay:10.37,2013-09-27 20:12:00,
2013-09-27 16:17:00,64.8,55.2,30.17,NNW,344,6.9,6.9,71,0.00,OVC,,0.00,WeatherDisplay:10.37,2013-09-27 20:17:00,
2013-09-27 16:22:00,64.9,56.0,30.18,NNW,336,9.0,9.0,73,0.00,OVC,,0.00,WeatherDisplay:10.37,2013-09-27 20:22:00,
2013-09-27 16:27:00,64.9,56.0,30.18,NNW,340,8.1,8.1,73,0.00,OVC,,0.00,WeatherDisplay:10.37,2013-09-27 20:27:00,
2013-09-27 16:32:00,65.2,55.9,30.18,NNW,341,4.6,4.7,72,0.00,OVC,,0.00,WeatherDisplay:10.37,2013-09-27 20:32:00,
2013-09-27 16:37:00,65.4,55.4,30.18,NNW,327,9.2,9.2,70,0.00,OVC,,0.00,WeatherDisplay:10.37,2013-09-27 20:37:00,
2013-09-27 16:42:00,65.2,55.6,30.18,NNW,332,11.5,11.5,71,0.00,OVC,,0.00,WeatherDisplay:10.37,2013-09-27 20:42:00,
2013-09-27 16:47:00,65.1,55.5,30.18,NW,325,10.4,10.4,71,0.00,OVC,,0.00,WeatherDisplay:10.37,2013-09-27 20:47:00,
2013-09-27 16:52:00,65.3,55.7,30.18,NNW,343,8.1,8.1,71,0.00,OVC,,0.00,WeatherDisplay:10.37,2013-09-27 20:52:00,
2013-09-27 16:57:00,65.3,55.3,30.18,NW,320,8.1,8.1,70,0.00,OVC,,0.00,WeatherDisplay:10.37,2013-09-27 20:57:00,
2013-09-27 17:02:00,65.0,55.0,30.18,NW,308,5.8,5.8,70,0.00,OVC,,0.00,WeatherDisplay:10.37,2013-09-27 21:02:00,
2013-09-27 17:07:00,64.9,55.7,30.18,North,355,8.1,8.1,72,0.00,OVC,,0.00,WeatherDisplay:10.37,2013-09-27 21:07:00,
2013-09-27 17:12:00,64.7,55.8,30.18,NNW,328,8.1,8.1,73,0.00,OVC,,0.00,WeatherDisplay:10.37,2013-09-27 21:12:00,
2013-09-27 17:18:00,64.5,55.7,30.18,NW,319,8.1,8.1,73,0.00,OVC,,0.00,WeatherDisplay:10.37,2013-09-27 21:18:00,
2013-09-27 17:23:00,64.4,55.2,30.18,WNW,302,8.1,8.1,72,0.00,OVC,,0.00,WeatherDisplay:10.37,2013-09-27 21:23:00,
2013-09-27 17:28:00,64.3,55.5,30.18,NW,311,9.2,9.2,73,0.00,OVC,,0.00,WeatherDisplay:10.37,2013-09-27 21:28:00,
2013-09-27 17:33:00,64.3,55.8,30.18,NW,317,5.8,5.8,74,0.00,OVC,,0.00,WeatherDisplay:10.37,2013-09-27 21:33:00,
2013-09-27 17:38:00,64.3,55.5,30.19,NW,321,8.1,8.1,73,0.00,OVC,,0.00,WeatherDisplay:10.37,2013-09-27 21:38:00,
2013-09-27 17:43:00,64.2,55.4,30.19,NW,306,6.9,6.9,73,0.00,OVC,,0.00,WeatherDisplay:10.37,2013-09-27 21:43:00,
2013-09-27 17:48:00,64.0,55.2,30.19,NW,322,8.1,8.1,73,0.00,OVC,,0.00,WeatherDisplay:10.37,2013-09-27 21:48:00,
2013-09-27 17:53:00,64.0,55.2,30.19,NW,324,7.0,7.0,73,0.00,OVC,,0.00,WeatherDisplay:10.37,2013-09-27 21:53:00,
2013-09-27 17:58:00,64.0,55.2,30.19,NW,319,9.2,9.2,73,0.00,OVC,,0.00,WeatherDisplay:10.37,2013-09-27 21:58:00,
2013-09-27 18:03:00,64.0,55.2,30.19,NNW,327,8.1,8.1,73,0.00,OVC,,0.00,WeatherDisplay:10.37,2013-09-27 22:03:00,
2013-09-27 18:08:00,63.9,55.1,30.19,NW,308,5.0,5.0,73,0.00,OVC,,0.00,WeatherDisplay:10.37,2013-09-27 22:08:00,
2013-09-27 18:13:00,63.8,55.0,30.19,NNW,339,8.1,8.1,73,0.00,OVC,,0.00,WeatherDisplay:10.37,2013-09-27 22:13:00,
2013-09-27 18:18:00,63.7,54.9,30.19,NNW,327,8.1,8.1,73,0.00,OVC,,0.00,WeatherDisplay:10.37,2013-09-27 22:18:00,
2013-09-27 18:23:00,63.4,55.0,30.19,NW,322,9.2,9.2,74,0.00,OVC,,0.00,WeatherDisplay:10.37,2013-09-27 22:23:00,
2013-09-27 18:28:00,63.1,54.7,30.19,WNW,298,6.9,6.9,74,0.00,OVC,,0.00,WeatherDisplay:10.37,2013-09-27 22:28:00,
2013-09-27 18:33:00,62.9,54.9,30.19,NW,319,5.0,5.0,75,0.00,OVC,,0.00,WeatherDisplay:10.37,2013-09-27 22:33:00,
2013-09-27 18:38:00,62.6,54.6,30.19,NNW,333,3.5,3.5,75,0.00,OVC,,0.00,WeatherDisplay:10.37,2013-09-27 22:38:00,
2013-09-27 18:43:00,62.4,54.7,30.19,NW,306,3.5,3.5,76,0.00,OVC,,0.00,WeatherDisplay:10.37,2013-09-27 22:43:00,
2013-09-27 18:48:00,62.2,54.9,30.19,WNW,300,4.6,4.6,77,0.00,OVC,,0.00,WeatherDisplay:10.37,2013-09-27 22:48:00,
2013-09-27 18:53:00,62.0,54.7,30.20,NW,320,3.5,3.5,77,0.00,OVC,,0.00,WeatherDisplay:10.37,2013-09-27 22:53:00,
2013-09-27 18:58:00,61.8,54.9,30.20,NW,320,3.5,3.5,78,0.00,OVC,,0.00,WeatherDisplay:10.37,2013-09-27 22:58:00,
2013-09-27 19:03:00,61.6,54.7,30.20,NW,320,3.5,3.5,78,0.00,BKN,,0.00,WeatherDisplay:10.37,2013-09-27 23:03:00,
2013-09-27 19:08:00,61.4,54.8,30.20,NW,320,3.5,3.5,79,0.00,BKN,,0.00,WeatherDisplay:10.37,2013-09-27 23:08:00,
2013-09-27 19:13:00,61.3,55.1,30.20,NW,320,2.3,2.3,80,0.00,BKN,,0.00,WeatherDisplay:10.37,2013-09-27 23:13:00,
2013-09-27 19:18:00,61.2,55.0,30.20,NW,320,3.5,3.5,80,0.00,BKN,,0.00,WeatherDisplay:10.37,2013-09-27 23:18:00,
2013-09-27 19:23:00,61.1,55.2,30.21,NW,320,3.5,3.5,81,0.00,BKN,,0.00,WeatherDisplay:10.37,2013-09-27 23:23:00,
2013-09-27 19:28:00,61.0,55.1,30.20,NW,320,3.5,3.5,81,0.00,BKN,,0.00,WeatherDisplay:10.37,2013-09-27 23:28:00,
2013-09-27 19:33:00,60.9,55.4,30.21,NW,320,3.5,3.5,82,0.00,BKN,,0.00,WeatherDisplay:10.37,2013-09-27 23:33:00,
2013-09-27 19:38:00,60.9,55.7,30.21,NW,320,3.5,3.5,83,0.00,BKN,,0.00,WeatherDisplay:10.37,2013-09-27 23:38:00,
2013-09-27 19:43:00,60.9,55.7,30.21,NNW,338,4.6,4.6,83,0.00,BKN,,0.00,WeatherDisplay:10.37,2013-09-27 23:43:00,
2013-09-27 19:48:00,60.9,55.7,30.21,NNW,344,4.6,4.6,83,0.00,BKN,,0.00,WeatherDisplay:10.37,2013-09-27 23:48:00,
2013-09-27 19:53:00,60.8,55.6,30.21,North,350,5.8,5.8,83,0.00,BKN,,0.00,WeatherDisplay:10.37,2013-09-27 23:53:00,
2013-09-27 19:58:00,60.8,55.6,30.21,NNW,341,4.6,4.6,83,0.00,BKN,,0.00,WeatherDisplay:10.37,2013-09-27 23:58:00,
2013-09-27 20:03:00,60.7,55.8,30.21,NNW,347,3.5,3.5,84,0.00,BKN,,0.00,WeatherDisplay:10.37,2013-09-28 00:03:00,
2013-09-27 20:08:00,60.6,55.7,30.21,NNW,348,4.6,4.6,84,0.00,BKN,,0.00,WeatherDisplay:10.37,2013-09-28 00:08:00,
2013-09-27 20:13:00,60.6,55.7,30.22,North,355,4.6,4.6,84,0.00,BKN,,0.00,WeatherDisplay:10.37,2013-09-28 00:13:00,
2013-09-27 20:18:00,60.6,55.7,30.22,North,355,5.0,5.0,84,0.00,BKN,,0.00,WeatherDisplay:10.37,2013-09-28 00:18:00,
2013-09-27 20:23:00,60.5,55.6,30.22,North,355,5.8,5.8,84,0.00,BKN,,0.00,WeatherDisplay:10.37,2013-09-28 00:23:00,
2013-09-27 20:28:00,60.3,55.4,30.22,North,355,5.8,5.8,84,0.00,BKN,,0.00,WeatherDisplay:10.37,2013-09-28 00:28:00,
2013-09-27 20:33:00,60.3,55.8,30.22,NNW,346,3.5,3.5,85,0.00,BKN,,0.00,WeatherDisplay:10.37,2013-09-28 00:33:00,
2013-09-27 20:38:00,60.1,55.6,30.22,NNW,327,5.0,5.0,85,0.00,BKN,,0.00,WeatherDisplay:10.37,2013-09-28 00:38:00,
2013-09-27 20:43:00,60.0,55.5,30.22,NNW,329,5.8,5.8,85,0.00,BKN,,0.00,WeatherDisplay:10.37,2013-09-28 00:43:00,
2013-09-27 20:48:00,59.8,55.3,30.22,NNW,331,4.0,4.0,85,0.00,BKN,,0.00,WeatherDisplay:10.37,2013-09-28 00:48:00,
2013-09-27 20:53:00,59.6,55.1,30.22,NNW,328,4.6,4.6,85,0.00,BKN,,0.00,WeatherDisplay:10.37,2013-09-28 00:53:00,
2013-09-27 20:58:00,59.5,55.0,30.22,NNW,329,3.5,3.5,85,0.00,BKN,,0.00,WeatherDisplay:10.37,2013-09-28 00:58:00,
2013-09-27 21:03:00,59.3,55.1,30.22,NNW,329,3.5,3.5,86,0.00,BKN,,0.00,WeatherDisplay:10.37,2013-09-28 01:03:00,
2013-09-27 21:08:00,59.2,55.0,30.23,NNW,342,3.5,3.5,86,0.00,BKN,,0.00,WeatherDisplay:10.37,2013-09-28 01:08:00,
2013-09-27 21:13:00,59.1,55.2,30.23,NNW,342,4.0,4.0,87,0.00,BKN,,0.00,WeatherDisplay:10.37,2013-09-28 01:13:00,
2013-09-27 21:18:00,59.0,55.1,30.23,NNW,342,4.6,4.6,87,0.00,BKN,,0.00,WeatherDisplay:10.37,2013-09-28 01:18:00,
2013-09-27 21:23:00,58.9,55.0,30.23,NNW,342,4.0,4.0,87,0.00,BKN,,0.00,WeatherDisplay:10.37,2013-09-28 01:23:00,
2013-09-27 21:28:00,58.9,55.0,30.23,NNW,348,4.6,4.6,87,0.00,BKN,,0.00,WeatherDisplay:10.37,2013-09-28 01:28:00,
2013-09-27 21:33:00,58.8,54.9,30.23,North,355,4.0,4.0,87,0.00,BKN,,0.00,WeatherDisplay:10.37,2013-09-28 01:33:00,
2013-09-27 21:38:00,58.6,54.7,30.23,North,360,5.8,5.8,87,0.00,BKN,,0.00,WeatherDisplay:10.37,2013-09-28 01:38:00,
2013-09-27 21:43:00,58.5,55.0,30.23,NNW,346,3.5,3.5,88,0.00,BKN,,0.00,WeatherDisplay:10.37,2013-09-28 01:43:00,
2013-09-27 21:48:00,58.4,54.9,30.24,NNW,336,4.6,4.6,88,0.00,BKN,,0.00,WeatherDisplay:10.37,2013-09-28 01:48:00,
2013-09-27 21:53:00,58.3,54.8,30.24,NNW,336,0.0,0.0,88,0.00,BKN,,0.00,WeatherDisplay:10.37,2013-09-28 01:53:00,
2013-09-27 21:58:00,58.1,54.6,30.24,NNW,336,2.3,2.3,88,0.00,BKN,,0.00,WeatherDisplay:10.37,2013-09-28 01:58:00,
2013-09-27 22:03:00,57.9,54.4,30.24,NNW,333,2.3,2.3,88,0.00,BKN,,0.00,WeatherDisplay:10.37,2013-09-28 02:03:00,
2013-09-27 22:08:00,57.8,54.3,30.24,NNW,333,1.0,1.0,88,0.00,BKN,,0.00,WeatherDisplay:10.37,2013-09-28 02:08:00,
2013-09-27 22:13:00,57.6,54.1,30.24,NNW,333,2.3,2.3,88,0.00,BKN,,0.00,WeatherDisplay:10.37,2013-09-28 02:13:00,
2013-09-27 22:18:00,57.4,53.9,30.25,NNW,333,2.3,2.3,88,0.00,BKN,,0.00,WeatherDisplay:10.37,2013-09-28 02:18:00,
2013-09-27 22:23:00,57.3,53.8,30.25,NNW,333,0.0,0.0,88,0.00,BKN,,0.00,WeatherDisplay:10.37,2013-09-28 02:23:00,
2013-09-27 22:28:00,57.2,53.7,30.25,NNW,333,0.0,0.0,88,0.00,BKN,,0.00,WeatherDisplay:10.37,2013-09-28 02:28:00,
2013-09-27 22:33:00,57.1,53.9,30.25,NNW,333,1.1,1.1,89,0.00,BKN,,0.00,WeatherDisplay:10.37,2013-09-28 02:33:00,
2013-09-27 22:38:00,57.1,53.9,30.25,NNW,333,0.0,0.0,89,0.00,BKN,,0.00,WeatherDisplay:10.37,2013-09-28 02:38:00,
2013-09-27 22:43:00,57.0,53.8,30.25,NNW,336,2.3,2.3,89,0.00,BKN,,0.00,WeatherDisplay:10.37,2013-09-28 02:43:00,
2013-09-27 22:48:00,57.0,54.1,30.25,North,349,1.1,1.1,90,0.00,BKN,,0.00,WeatherDisplay:10.37,2013-09-28 02:48:00,
2013-09-27 22:53:00,56.9,54.0,30.25,North,349,2.0,2.0,90,0.00,BKN,,0.00,WeatherDisplay:10.37,2013-09-28 02:53:00,
2013-09-27 22:58:00,56.7,53.8,30.25,North,349,0.0,0.0,90,0.00,BKN,,0.00,WeatherDisplay:10.37,2013-09-28 02:58:00,
2013-09-27 23:03:00,56.3,53.4,30.25,North,349,2.3,2.3,90,0.00,SCT,,0.00,WeatherDisplay:10.37,2013-09-28 03:03:00,
2013-09-27 23:08:00,56.0,53.4,30.25,North,349,0.0,0.0,91,0.00,SCT,,0.00,WeatherDisplay:10.37,2013-09-28 03:08:00,
2013-09-27 23:13:00,55.9,53.3,30.25,North,349,0.0,0.0,91,0.00,SCT,,0.00,WeatherDisplay:10.37,2013-09-28 03:13:00,
2013-09-27 23:18:00,55.5,52.9,30.25,North,349,2.3,2.3,91,0.00,SCT,,0.00,WeatherDisplay:10.37,2013-09-28 03:18:00,
2013-09-27 23:23:00,55.3,52.7,30.25,North,349,3.5,3.5,91,0.00,SCT,,0.00,WeatherDisplay:10.37,2013-09-28 03:23:00,
2013-09-27 23:28:00,55.1,52.8,30.25,North,349,2.3,2.3,92,0.00,SCT,,0.00,WeatherDisplay:10.37,2013-09-28 03:28:00,
2013-09-27 23:33:00,55.0,52.7,30.25,North,349,0.0,0.0,92,0.00,SCT,,0.00,WeatherDisplay:10.37,2013-09-28 03:33:00,
2013-09-27 23:38:00,54.9,52.6,30.25,North,349,2.3,2.3,92,0.00,SCT,,0.00,WeatherDisplay:10.37,2013-09-28 03:38:00,
2013-09-27 23:43:00,54.8,52.5,30.25,North,349,1.1,1.1,92,0.00,SCT,,0.00,WeatherDisplay:10.37,2013-09-28 03:43:00,
2013-09-27 23:48:00,54.8,52.8,30.25,North,349,2.3,2.3,93,0.00,SCT,,0.00,WeatherDisplay:10.37,2013-09-28 03:48:00,
2013-09-27 23:53:00,54.6,52.6,30.25,North,349,2.3,2.3,93,0.00,SCT,,0.00,WeatherDisplay:10.37,2013-09-28 03:53:00,
2013-09-27 23:58:00,54.5,52.5,30.26,North,349,1.1,1.1,93,0.00,SCT,,0.00,WeatherDisplay:10.37,2013-09-28 03:58:00,